Regional Weather Roundup
Issued by NWS Albany, NY

Home | Current Version | Previous Version | Text Only | Print | Product List | Glossary On
Versions: 1 2 3 4 5 6 7 8 9 10 11 12 13 14 15 16 17 18 19 20 21 22 23 24 25 26 27 28 29 30 31 32 33 34 35 36 37 38 39 40 41 42 43 44 45 46 47 48 49 50
000
ASUS41 KALY 280410
RWRALY

NEW YORK STATE HOURLY WEATHER ROUNDUP
NATIONAL WEATHER SERVICE ALBANY NY
1200 AM EDT SAT MAY 28 2016

NOTE: "FAIR" INDICATES FEW OR NO CLOUDS BELOW 12,000 FEET WITH NO
SIGNIFICANT WEATHER AND/OR NO OBSTRUCTIONS TO VISIBILITY.

NYZ032-033-038>043-046>054-057>066-NYZ062>081-082-084-280500-
EAST


CITY           SKY/WX    TMP DP  RH WIND       PRES   REMARKS
ALBANY         PTCLDY    73  67  81 S3        30.02R
GLENS FALLS    PTCLDY    73  66  78 S3        30.00R
POUGHKEEPSIE   CLEAR     72  66  81 CALM      30.03S
NEWBURGH       MOCLDY    70  68  94 CALM      30.07R
MONTGOMERY     CLEAR     68  66  93 CALM      30.05R FOG
WHITE PLAINS   PTCLDY    67  61  81 S3        30.07R
ISLIP          MOCLDY    68  56  65 SW16G24   30.09R
NEW YORK CITY  PTCLDY    76  67  73 S9        30.06R
CENTRAL PARK   CLEAR     76  63  64 VRB7      30.09R
$$

NYZ005>009-017-018-044>046-055-056-280500-
CENTRAL


CITY           SKY/WX    TMP DP  RH WIND       PRES   REMARKS
FULTON         FOG       68  65  90 CALM      30.03R VSB 1/4
SYRACUSE       CLOUDY    68  67  96 SE3       30.02R
ROME           PTCLDY    67  66  97 CALM      30.05R
ELMIRA         MOCLDY    68  63  84 E3        30.05R
BINGHAMTON     PTCLDY    71  63  75 S6        30.08R
MONTICELLO     CLEAR     64  63  94 N5        30.11R
$$

NYZ026>034-041>043-087-280500-
NORTH


CITY           SKY/WX    TMP DP  RH WIND       PRES   REMARKS
WATERTOWN      CLOUDY    69  65  86 S5        30.01R FOG
FORT DRUM      NOT AVBL
MASSENA        CLOUDY    72  66  81 SW6       29.98R
SARANAC LAKE   PTCLDY    67  63  87 SW5       30.04S
PLATTSBURGH    PTCLDY    76  63  64 CALM      29.96R
$$

NYZ001>004-010>016-019>021-085-280500-
WEST


CITY           SKY/WX    TMP DP  RH WIND       PRES   REMARKS
NIAGARA FALLS  PTCLDY    65  59  81 S5        30.02S
BUFFALO        CLOUDY    68  62  81 S6        30.04R
DUNKIRK        MOCLDY    65  62  90 CALM      30.04R
JAMESTOWN      PTCLDY    68  61  77 CALM      30.09S
WELLSVILLE     PTCLDY    70  62  76 CALM      30.13R
ROCHESTER      PTCLDY    71  62  73 SW5       30.04R
PENN YAN       MOCLDY    73  63  70 CALM      30.06R
$$

             KEY
       WCI = WIND CHILL INDEX
       VSB = VISIBILITY
       HX  = HEAT INDEX
$$



USA.gov is the U.S. government's official web portal to all federal, state and local government web resources and services.